[[{"header":{"parameterUnit":"m.s-1","parameterCategory":1,"la1":30.2991,"la2":30.254,"lo1":-89.0895,"lo2":-89.0444,"dy":0.0017,"dx":0.0017,"nx":28,"ny":28,"refTime":"2024-10-13T03:00:00:Z","depth":0,"parameterNumber":2,"parameterNumberName":"U-component_of_WINDS"},"data":[0,0,0,0,0,0,0,0,0,0,0,0,0,0,0,0,0,0,0,0,0,0,0,0,0,0,0,0,0,0,0,0,0,0,0,0,0,0,0,0,0,0,0,0,0,0,0,0,0,0,0,0,0,0,0,0,0,0,2.5329,2.5331,0,2.549,2.5492,2.5493,2.547,2.5467,2.5464,2.5462,2.563,2.5637,2.5644,0,0,0,0,0,0,0,0,0,0,0,0,0,2.5005,2.5011,2.5329,2.5331,2.5333,2.5489,2.5492,2.5494,2.547,2.5467,2.5464,2.5461,2.5628,2.5636,2.5644,0,0,0,0,0,0,0,0,0,0,0,0,0,2.5153,2.5013,2.5329,2.534,2.5343,2.5489,2.5492,2.5494,2.5471,2.5467,2.5463,2.5459,2.5625,2.5635,2.5646,2.5792,0,0,2.5678,2.5682,0,0,0,0,0,0,0,0,2.5145,2.5165,2.5336,2.534,2.5343,2.5455,2.5439,2.5594,2.5472,2.5422,2.5462,2.5457,2.5576,2.559,2.5629,2.58,2.5807,2.5679,2.5685,2.569,2.5692,0,0,0,0,0,0,0,2.5135,2.5158,2.5393,2.5339,2.5343,2.5338,2.5355,2.5468,2.552,2.5426,2.5425,2.5444,2.5576,2.5619,2.5633,2.581,2.5678,2.5688,2.5694,2.5698,2.6108,2.6112,0,0,0,0,0,0,2.5121,2.515,2.5388,2.5398,2.5232,2.5347,2.5366,2.5423,2.5519,2.5529,2.5447,2.5442,2.5603,2.5621,2.5639,2.5816,2.5689,2.5699,2.5705,2.6103,2.6109,2.6114,0,0,0,0,0,0,2.5114,2.5142,2.5381,2.5273,2.5303,2.5357,2.5422,2.5429,2.5471,2.5534,2.5544,2.5481,2.56,2.5624,2.5754,2.5821,2.5704,2.5714,2.6098,2.6105,2.6111,2.6172,0,0,0,0,0,0,2.5105,2.514,2.5196,2.5275,2.5309,2.5493,2.5426,2.5435,2.5489,2.5484,2.5569,2.5579,2.5599,2.5738,2.5764,2.5834,2.5722,2.6092,2.6101,2.6109,2.6164,2.618,2.6194,0,0,0,0,0,2.5093,2.5207,2.5199,2.5227,2.538,2.5497,2.5517,2.5537,2.5494,2.5551,2.5592,2.5576,2.581,2.5751,2.5781,2.5855,2.6088,2.6099,2.6108,2.6158,2.6177,2.6193,0,0,0,0,0,0,2.5137,2.5218,2.5209,2.5352,2.5418,2.5493,2.5565,2.5557,2.5636,2.5629,2.5651,2.567,2.5801,2.5841,2.5775,2.6001,2.5943,2.596,2.597,2.5989,2.6004,2.5992,2.5731,0,0,0,0,0,2.5162,2.525,2.5316,2.5436,2.5469,2.5511,2.5563,2.5572,2.5642,2.567,2.572,2.5788,2.5877,2.5935,2.6021,2.6169,2.6188,2.6235,2.6249,2.6261,2.6275,2.6357,2.6378,2.6148,2.6147,2.6147,0,0,2.5217,2.5273,2.5327,2.5446,2.5498,2.5588,2.5535,2.5633,2.5701,2.5685,2.581,2.5849,2.5927,2.6067,2.6131,2.6104,2.6343,2.6274,2.6283,2.6291,2.637,2.6391,2.6411,2.6155,2.6153,2.6152,0,0,2.5364,2.5414,2.5519,2.5572,2.565,2.5677,2.5702,2.5778,2.5803,2.5929,2.5919,2.6,2.6152,2.6208,2.6256,2.6422,2.6411,2.6449,2.6527,2.6606,2.6624,2.664,2.67,2.6721,2.6463,2.6464,2.6464,0,2.5423,2.5558,2.5574,2.5674,2.5727,2.5714,2.5821,2.5872,2.5975,2.6012,2.5979,2.617,2.6221,2.6374,2.6414,2.6454,2.6483,2.644,2.662,2.6636,2.6652,2.6709,2.6731,2.6468,2.6467,2.6467,2.6466,0,2.5626,2.572,2.5795,2.5893,2.5954,2.6057,2.609,2.615,2.6154,2.6184,2.6312,2.6374,2.6471,2.6507,2.6513,2.6661,2.6641,2.6614,2.6557,2.6678,2.6731,2.6753,2.6474,2.6472,2.6471,2.647,0,0,2.5806,2.591,2.5938,2.5982,2.6066,2.614,2.6242,2.6335,2.6386,2.6457,2.6544,2.6672,2.6647,2.6702,2.6713,2.6782,2.691,2.6747,2.6749,2.6775,2.7077,2.7097,2.7122,2.6902,2.6906,2.691,2.707,0,2.5961,2.6139,2.6157,2.6317,2.6404,2.6393,2.6482,2.6544,2.6575,2.6654,2.6688,2.6779,2.6739,2.6772,2.684,2.688,2.6971,2.6868,2.6984,2.6988,2.6965,2.715,2.7172,2.732,2.7091,2.7095,2.7097,0,2.6166,2.6241,2.6409,2.6481,2.6518,2.6598,2.6684,2.6759,2.6829,2.6847,2.6907,2.6909,2.7015,2.6952,2.7098,2.7028,2.7076,2.7103,2.7109,2.7121,2.705,2.7168,2.7368,2.7391,2.7131,2.7128,2.7126,0,2.628,2.6423,2.6543,2.6581,2.6667,2.6723,2.6762,2.6828,2.6883,2.6959,2.6994,2.7082,2.713,2.7198,2.7224,2.7176,2.7369,2.7308,2.7387,2.7387,2.7429,2.7426,2.7641,2.7459,2.7459,2.7458,2.7458,0,2.6451,2.6555,2.6595,2.6669,2.6784,2.6803,2.6918,2.6954,2.7013,2.7093,2.7089,2.7166,2.7194,2.7275,2.7296,2.7413,2.7435,2.7453,2.7458,2.7454,2.7452,2.7487,2.7477,2.7464,2.7463,2.7462,2.7461,0,2.66,2.663,2.6759,2.683,2.685,2.6933,2.6994,2.7065,2.7094,2.7196,2.7221,2.7267,2.7362,2.7394,2.751,2.7523,2.7661,2.7656,2.7637,2.7638,2.7715,2.7707,2.796,2.7994,2.7789,2.7791,2.7792,0,2.6707,2.6787,2.6865,2.6918,2.6959,2.7045,2.71,2.7121,2.7179,2.7264,2.7325,2.7419,2.7495,2.7648,2.7692,2.778,2.7778,2.786,2.7791,2.7785,2.778,2.7775,2.7783,2.7874,2.7876,2.7877,2.7879,0,2.6896,2.6906,2.6985,2.707,2.7136,2.7204,2.7269,2.7313,2.7344,2.741,2.7506,2.7565,2.7681,2.7775,2.7864,2.7905,2.7898,2.79,2.7923,2.7921,2.7906,2.7915,2.7672,2.7894,2.7893,2.7892,2.7891,2.789,2.7027,2.7097,2.7163,2.7251,2.7302,2.7363,2.7433,2.747,2.755,2.7646,2.7654,2.7758,2.7825,2.7944,2.7989,2.8071,2.8048,2.8082,2.809,2.8098,2.8105,2.7892,2.8088,2.8087,2.8087,2.8087,2.8086,0,2.7216,2.7257,2.7338,2.7429,2.7498,2.7483,2.7554,2.7614,2.7705,2.7767,2.7842,2.7952,2.8042,2.8093,2.8183,2.8239,2.8238,2.8262,2.8259,2.8268,2.812,2.8091,2.8261,2.8261,2.8261,2.8261,2.8261,2.8261,2.7322,2.7439,2.7457,2.76,2.764,2.7741,2.7783,2.7839,2.7889,2.8012,2.8086,2.8118,2.8176,2.827,2.8352,2.8365,2.8399,2.8426,2.8436,2.8297,2.8279,2.8262,2.8235,2.8433,2.8433,2.8578,2.8579,2.858]},{"header":{"parameterUnit":"m.s-1","parameterCategory":1,"la1":30.2991,"la2":30.254,"lo1":-89.0895,"lo2":-89.0444,"dy":0.0017,"dx":0.0017,"nx":28,"ny":28,"refTime":"2024-10-13T03:00:00:Z","depth":0,"parameterNumber":3,"parameterNumberName":"V-component_of_WINDS"},"data":[0,0,0,0,0,0,0,0,0,0,0,0,0,0,0,0,0,0,0,0,0,0,0,0,0,0,0,0,0,0,0,0,0,0,0,0,0,0,0,0,0,0,0,0,0,0,0,0,0,0,0,0,0,0,0,0,0,0,4.0735,4.0736,0,4.0831,4.0832,4.0833,4.0776,4.0774,4.0771,4.0768,4.0861,4.0866,4.087,0,0,0,0,0,0,0,0,0,0,0,0,0,4.0496,4.0501,4.0735,4.0736,4.0737,4.0831,4.0832,4.0833,4.0777,4.0774,4.077,4.0767,4.0859,4.0865,4.0871,0,0,0,0,0,0,0,0,0,0,0,0,0,4.0597,4.0503,4.0735,4.0721,4.072,4.083,4.0832,4.0834,4.0778,4.0773,4.0769,4.0766,4.0857,4.0864,4.0872,4.0999,0,0,4.0895,4.0898,0,0,0,0,0,0,0,0,4.0591,4.0606,4.0721,4.0722,4.0722,4.0788,4.0782,4.0889,4.0779,4.0756,4.0768,4.0764,4.0839,4.0848,4.0875,4.1004,4.1008,4.0895,4.09,4.0903,4.0905,0,0,0,0,0,0,0,4.0584,4.0601,4.0773,4.0723,4.0723,4.0707,4.0717,4.0802,4.0819,4.0757,4.0753,4.0766,4.0838,4.0868,4.0876,4.1009,4.0895,4.0902,4.0906,4.0909,4.1246,4.125,0,0,0,0,0,0,4.0579,4.0596,4.077,4.0776,4.0645,4.0715,4.0726,4.077,4.0818,4.0821,4.0769,4.0763,4.0857,4.0868,4.0879,4.1031,4.0903,4.091,4.0914,4.1241,4.1247,4.1252,0,0,0,0,0,0,4.0574,4.0595,4.0766,4.0685,4.0705,4.0723,4.0774,4.0774,4.0804,4.0827,4.0829,4.0796,4.0854,4.0869,4.097,4.1034,4.0913,4.092,4.1236,4.1243,4.1249,4.1337,0,0,0,0,0,0,4.0568,4.0594,4.0644,4.0686,4.071,4.0857,4.0778,4.0779,4.0817,4.081,4.0853,4.0856,4.0852,4.0959,4.0978,4.1042,4.0926,4.123,4.1239,4.1247,4.1328,4.1345,4.136,0,0,0,0,0,4.0559,4.0664,4.0647,4.0668,4.0773,4.0861,4.0874,4.0869,4.0823,4.0872,4.0887,4.0855,4.1024,4.097,4.099,4.1058,4.1226,4.1237,4.1246,4.1321,4.1342,4.136,0,0,0,0,0,0,4.0627,4.0669,4.0651,4.0773,4.0814,4.0851,4.0914,4.0892,4.0945,4.0936,4.0925,4.0935,4.1041,4.1059,4.0998,4.1183,4.1118,4.1132,4.1167,4.1188,4.1203,4.1196,4.0932,0,0,0,0,0,4.0656,4.0726,4.0758,4.0862,4.0884,4.0896,4.0933,4.0926,4.0967,4.0984,4.1006,4.1046,4.1107,4.1148,4.1207,4.133,4.1338,4.1386,4.1402,4.1416,4.1428,4.1493,4.1515,4.1284,4.1284,4.1284,0,0,4.0717,4.0749,4.0793,4.0877,4.0908,4.0978,4.0911,4.0988,4.1039,4.0995,4.1092,4.111,4.1153,4.1266,4.1317,4.1284,4.1493,4.1428,4.1439,4.1444,4.1506,4.1528,4.1547,4.1291,4.129,4.1289,0,0,4.0864,4.0895,4.0985,4.1018,4.1067,4.1073,4.1095,4.1136,4.1147,4.1244,4.1212,4.1272,4.1379,4.1411,4.1442,4.16,4.1571,4.1619,4.1703,4.1767,4.1785,4.1801,4.1856,4.1876,4.1631,4.1631,4.1632,0,4.0932,4.1039,4.1034,4.1114,4.1151,4.1116,4.1206,4.1237,4.1301,4.1326,4.129,4.1423,4.145,4.1569,4.1608,4.1634,4.1657,4.1614,4.1783,4.1799,4.1814,4.1866,4.1888,4.1637,4.1636,4.1636,4.1635,0,4.1121,4.1195,4.1262,4.1327,4.1371,4.1456,4.1461,4.1506,4.1494,4.1504,4.1603,4.1634,4.1698,4.1725,4.1714,4.1843,4.1821,4.1784,4.1718,4.1841,4.1891,4.1911,4.1645,4.1643,4.1641,4.164,0,0,4.1313,4.1374,4.1399,4.1427,4.1478,4.1534,4.1616,4.168,4.1719,4.1763,4.1831,4.1922,4.1888,4.1922,4.1914,4.197,4.2092,4.1926,4.1927,4.1955,4.2235,4.2262,4.2286,4.2074,4.2078,4.2081,4.2231,0,4.1462,4.1608,4.1605,4.174,4.1807,4.1775,4.1845,4.1883,4.1894,4.1951,4.1963,4.2028,4.1978,4.1998,4.2053,4.2066,4.2148,4.2055,4.2135,4.2138,4.2125,4.2312,4.2341,4.2481,4.225,4.2253,4.2256,0,4.1656,4.171,4.1852,4.1892,4.192,4.1985,4.2043,4.2098,4.2139,4.2143,4.2182,4.2165,4.2245,4.2178,4.2287,4.2224,4.2256,4.2268,4.2273,4.228,4.2204,4.2323,4.2526,4.2547,4.2286,4.2284,4.2282,0,4.1782,4.1889,4.1988,4.2013,4.2063,4.2108,4.2131,4.2168,4.2206,4.2256,4.228,4.2338,4.237,4.2414,4.2412,4.2363,4.2523,4.2455,4.2527,4.2527,4.2562,4.256,4.2772,4.2583,4.2583,4.2583,4.2582,0,4.1949,4.2036,4.2044,4.2105,4.2202,4.2196,4.2291,4.2309,4.2342,4.2403,4.2378,4.2436,4.243,4.2487,4.2486,4.2577,4.2591,4.2595,4.2593,4.2597,4.2597,4.2618,4.2608,4.2588,4.2587,4.2586,4.2585,0,4.2105,4.2114,4.2219,4.2258,4.2269,4.2339,4.237,4.2427,4.2436,4.2514,4.2532,4.2545,4.2612,4.2614,4.269,4.2689,4.2799,4.2787,4.2786,4.2784,4.2855,4.2848,4.3089,4.3119,4.2911,4.2913,4.2915,0,4.221,4.2278,4.2324,4.2364,4.239,4.2455,4.2495,4.2491,4.2533,4.2584,4.2634,4.2699,4.275,4.2857,4.2873,4.293,4.2918,4.2999,4.2927,4.2928,4.2919,4.2915,4.2921,4.3013,4.3015,4.3017,4.3018,0,4.2397,4.2398,4.2458,4.2519,4.2567,4.2614,4.2658,4.2692,4.2693,4.274,4.2809,4.285,4.2928,4.2991,4.3047,4.3067,4.3043,4.3041,4.306,4.3065,4.3061,4.3064,4.2824,4.3035,4.3034,4.3032,4.3031,4.3031,4.2531,4.2589,4.263,4.2697,4.273,4.2771,4.2826,4.2842,4.29,4.2965,4.2959,4.3035,4.3072,4.3145,4.317,4.3228,4.32,4.3228,4.3235,4.3242,4.325,4.3053,4.3238,4.3237,4.3237,4.3236,4.3236,0,4.2715,4.2741,4.2802,4.2865,4.2917,4.2891,4.2938,4.2982,4.305,4.3088,4.314,4.3218,4.328,4.33,4.3359,4.3401,4.3391,4.3417,4.3413,4.3418,4.3272,4.3249,4.3424,4.3424,4.3424,4.3424,4.3424,4.3424,4.2818,4.2914,4.292,4.3032,4.3055,4.3132,4.3161,4.3198,4.3228,4.3318,4.3369,4.3383,4.3413,4.3474,4.3529,4.3533,4.3555,4.3585,4.3585,4.3447,4.3429,4.3411,4.3389,4.359,4.3591,4.3726,4.3727,4.3728]}]]